Location: East Horndon
(51.5667°N, 0.3500°E)
Time: 22:35:57
(UTC+00:00)

Cosmos 1703 Rocket - Pass Details

Date: 08 November 2025
Orbit: 600 x 625 km, 82.5° (Epoch: 04 December)

Event Time Altitude Azimuth Distance (km) Brightness Sun altitude
Rises 05:11:29 0° 194° (SSW) 2,857 6.9 -17.7°
Reaches altitude 10° 05:13:42 10° 196° (SSW) 1,961 6.0 -17.4°
Maximum altitude 05:18:02 73° 282° (WNW) 647 3.4 -16.7°
Drops below altitude 10° 05:22:27 10° 7° (N) 1,994 6.2 -16.0°
Sets 05:24:42 0° 10° (N) 2,908 7.0 -15.7°
